Location: Firdgum
(53.2488°N, 5.5615°E)
Time: 05:45:12
(UTC+00:00)

NOAA 12 - Pass Details

Date: 08 December 2019
Orbit: 795 x 815 km, 98.5° (Epoch: 23 January)

Event Time Altitude Azimuth Distance (km) Brightness Sun altitude
Rises 06:38:42 0° 15° (NNE) 3,326 7.2 -8.3°
Reaches altitude 10° 06:41:03 10° 16° (NNE) 2,388 6.4 -8.0°
Maximum altitude 06:46:20 88° 105° (ESE) 806 4.2 -7.3°
Drops below altitude 10° 06:51:34 10° 197° (SSW) 2,363 6.7 -6.6°
Sets 06:53:53 0° 197° (SSW) 3,288 7.5 -6.3°
